GEFSNGP_500_meanwind_066.txt.gz
Wind_Speed
12 13 14 16 17 19 20 23 25 28 30 32 35 38 41 44 46 48 51 54 56 56 56 56 56 56 56 57 57 57 57 57 55 54 52 50 48 46 44 43 42 42 42 42
13 14 15 16 18 20 22 24 27 29 31 34 37 41 44 46 49 51 54 55 55 55 56 56 56 55 55 55 56 57 57 56 55 54 52 50 49 47 45 42 41 40 40 39
14 15 16 18 20 22 24 26 29 32 34 37 39 42 46 49 51 54 56 55 55 55 55 55 56 56 56 56 57 57 57 56 55 54 53 51 49 48 46 44 42 40 38 37
16 17 18 20 22 24 26 28 31 34 37 39 42 44 47 51 54 55 55 54 54 55 55 55 56 56 56 57 57 57 56 55 55 53 52 49 48 46 44 42 41 39 38 37
17 19 21 23 25 27 29 30 33 36 39 41 44 45 47 51 53 54 54 53 54 55 56 56 56 56 57 57 57 56 55 53 51 49 48 46 45 43 41 40 39 38 37 36
19 21 24 25 27 29 32 33 36 39 41 44 47 49 49 51 53 53 53 54 55 56 56 56 56 56 56 56 55 54 52 50 49 47 45 43 41 39 38 38 37 35 34 34
21 23 24 26 28 30 33 36 38 40 42 45 49 51 53 54 54 54 54 54 55 55 56 56 56 56 55 54 53 51 49 48 46 43 42 39 37 35 35 34 33 32 32 32
22 24 26 27 29 31 33 36 38 41 43 46 49 51 52 53 53 53 53 54 55 55 55 55 55 55 54 52 50 48 47 45 42 39 36 33 31 30 30 29 29 29 30 31
24 25 26 28 29 31 33 36 39 42 44 47 49 51 52 53 53 53 53 54 54 54 54 54 54 53 53 51 48 46 44 41 38 34 31 28 25 24 24 25 26 26 26 27
24 25 26 27 29 31 34 37 40 43 46 48 50 51 52 53 53 53 53 53 54 53 53 53 53 52 51 49 47 44 41 38 34 30 27 23 21 19 18 19 21 23 23 24
23 25 26 27 29 32 35 38 41 43 47 49 50 51 53 53 53 53 52 53 53 53 53 53 52 50 49 47 45 42 40 36 32 28 25 20 17 14 13 14 16 18 19 20
24 26 27 29 30 33 36 38 41 44 46 49 50 51 52 52 53 53 52 52 52 52 52 52 51 49 47 46 43 41 38 35 30 26 23 19 14 11 9 10 12 14 16 17
25 26 28 29 31 33 36 38 41 44 47 49 50 51 52 52 53 53 52 51 50 51 51 50 50 48 46 45 42 40 37 33 29 26 23 18 14 9 5 4 7 10 13 15
25 27 28 29 31 33 36 38 41 44 47 49 50 51 52 52 52 51 50 49 49 50 50 49 49 47 45 44 42 38 35 32 29 26 23 20 15 10 6 2 3 6 9 11
26 27 28 30 31 33 36 38 41 44 46 48 49 50 51 52 51 50 49 47 47 48 48 47 47 45 44 42 41 38 35 32 29 26 23 20 17 13 10 6 5 5 6 7
26 27 29 30 32 34 36 39 41 44 46 48 49 49 51 51 51 50 48 46 45 45 46 45 45 44 42 41 39 38 36 32 29 27 24 21 18 15 12 10 9 8 7 7
27 28 29 31 33 34 37 39 42 44 47 48 49 49 50 51 49 47 45 44 43 44 44 43 43 42 41 39 38 37 35 33 30 28 26 23 20 18 16 14 12 11 10 9
28 30 31 32 34 35 38 40 42 44 47 48 49 50 50 50 48 46 43 42 41 41 41 41 40 39 39 38 37 35 33 32 30 28 26 23 21 20 18 17 15 15 13 12
30 31 32 33 35 36 38 40 42 44 46 48 48 49 49 49 48 45 42 40 38 37 37 37 37 37 36 36 35 34 33 31 30 28 26 24 22 21 20 19 17 16 16 15
32 33 34 35 36 37 38 40 42 44 46 47 47 48 48 47 46 44 41 39 37 36 35 35 34 34 33 33 33 33 32 31 29 28 26 23 21 20 20 19 18 18 18 18
34 35 36 36 37 38 39 41 42 44 46 47 47 47 47 46 45 43 40 37 35 33 32 32 31 30 30 30 30 30 30 29 29 28 26 24 22 21 20 20 19 19 20 21
36 37 37 38 38 39 40 41 42 44 45 46 46 46 45 44 43 41 39 36 33 31 30 29 28 27 26 26 26 27 27 27 26 26 26 24 23 21 21 21 21 21 21 22
38 38 38 39 39 40 41 41 43 44 45 45 45 45 44 43 41 38 37 34 32 29 27 26 25 24 23 23 23 23 23 23 23 23 23 23 22 21 21 21 22 22 22 23
40 39 39 40 40 40 41 42 43 45 45 45 44 43 42 41 39 37 35 33 31 28 25 23 23 21 20 20 20 20 20 20 21 21 21 21 20 20 20 20 21 21 21 22
42 42 41 41 40 41 42 43 44 44 44 44 43 42 40 39 37 36 34 31 29 27 24 21 20 19 17 16 17 17 17 17 17 18 18 18 18 18 19 19 19 20 20 21
43 42 42 41 41 42 42 43 44 44 42 41 41 40 39 37 36 34 32 30 28 26 22 19 18 16 14 13 13 13 13 13 13 14 15 16 16 17 17 17 18 19 19 20
44 43 42 41 41 42 43 42 42 41 40 39 38 37 36 35 34 33 31 28 26 25 22 18 16 14 12 10 9 9 10 10 10 11 12 12 13 13 14 14 14 15 16 17

GEFSNGP_500_meanwind_072.txt.gz
Wind_Speed
8 9 11 12 13 14 15 16 18 20 23 25 28 31 33 35 37 39 41 43 45 45 45 46 46 47 47 48 48 49 49 49 49 49 50 50 51 51 50 50 50 50 50 51
9 11 13 13 14 15 17 18 19 21 24 26 29 32 34 37 38 40 42 44 45 46 46 46 47 47 47 47 48 49 49 50 50 50 50 50 50 49 49 48 47 47 47 48
11 13 14 14 15 16 18 19 21 23 25 28 30 33 36 38 40 42 44 45 46 46 46 46 47 48 47 47 49 49 50 50 51 50 49 48 47 46 46 45 45 45 45 46
12 14 14 15 16 17 18 20 22 24 27 29 32 35 38 40 41 43 45 46 47 47 47 47 48 47 47 48 50 50 50 50 49 48 46 45 43 42 40 40 40 40 41 42
14 15 16 16 17 18 18 19 22 25 28 30 33 35 39 41 43 45 47 47 48 48 48 48 48 47 48 49 50 50 50 49 48 46 44 43 40 38 36 35 35 36 36 38
16 17 17 18 18 19 21 21 23 26 29 32 35 37 39 42 44 46 47 48 48 48 48 48 48 48 48 49 50 50 49 48 46 45 43 40 37 34 32 30 30 31 31 33
17 18 19 19 20 21 23 25 26 28 31 34 37 39 42 43 45 47 48 48 48 48 47 48 48 48 48 49 50 49 48 47 45 43 40 37 33 31 29 26 25 25 25 27
17 18 20 20 21 22 23 25 27 29 32 35 37 40 42 45 46 48 48 49 49 47 47 48 48 48 48 49 48 47 47 45 43 41 38 34 31 28 25 22 20 18 19 21
18 19 20 21 22 23 24 26 28 30 33 36 38 40 43 45 47 48 49 49 48 47 46 47 48 47 47 48 47 46 45 43 41 39 36 32 29 25 22 18 15 14 15 16
19 20 21 22 23 24 25 27 28 31 33 36 39 42 44 46 48 48 49 49 48 47 46 47 47 46 46 46 46 45 43 41 39 37 34 30 26 23 19 15 12 11 10 12
20 21 22 22 23 24 26 27 29 31 34 37 40 43 45 47 48 49 49 49 48 46 46 46 45 45 45 44 44 43 42 40 39 36 33 29 25 22 18 14 10 7 6 9
21 22 22 23 24 25 26 28 30 32 35 38 41 43 46 48 49 49 49 49 47 46 45 45 44 43 43 42 42 42 40 39 38 36 33 29 25 21 18 14 10 5 2 6
22 22 22 23 24 25 27 29 31 33 37 40 42 44 46 48 49 49 49 48 47 45 44 43 43 42 41 41 41 40 40 39 37 36 32 29 26 22 18 15 10 5 1 2
22 22 23 24 25 26 28 30 32 35 38 40 43 45 47 48 49 49 48 47 46 44 42 42 41 40 40 40 39 38 38 37 36 34 33 30 26 23 19 15 12 7 3 1
22 23 23 24 26 27 29 31 34 36 39 41 43 45 47 47 48 49 47 46 45 43 41 40 40 39 38 38 37 36 36 36 35 34 32 29 26 23 20 16 14 10 6 3
23 24 25 26 27 29 31 33 35 37 39 41 43 45 47 47 48 48 47 46 44 41 39 38 38 37 36 36 36 35 34 33 33 32 31 29 26 23 20 17 15 12 9 6
25 26 27 28 29 31 33 34 36 38 40 41 43 45 46 47 47 47 46 45 43 41 39 36 36 35 35 34 34 33 32 32 32 31 30 28 26 24 21 19 16 13 11 8
28 29 30 30 31 33 34 36 37 38 40 41 42 44 45 46 46 46 44 42 41 40 38 35 34 33 33 32 32 31 30 30 30 29 29 27 25 23 22 20 18 16 13 12
31 31 32 33 34 35 36 37 38 39 40 41 42 43 45 45 45 44 43 41 39 38 36 33 32 31 30 29 29 29 28 28 28 28 27 26 24 22 22 21 20 18 17 15
33 34 34 35 35 36 37 38 39 39 40 41 42 42 43 44 44 43 41 40 38 37 34 32 30 28 27 27 26 26 26 25 26 26 25 24 22 21 20 20 20 20 19 18
36 36 37 37 37 37 38 38 38 39 39 40 41 41 42 43 42 41 39 38 37 36 33 31 28 26 25 24 23 23 23 23 23 24 24 23 21 20 20 19 19 19 19 20
37 38 38 38 38 38 38 38 38 38 39 39 40 40 41 41 41 40 38 37 36 34 32 30 27 25 22 21 20 20 20 21 21 21 21 21 20 20 19 19 19 19 19 18
39 39 39 39 39 39 38 38 38 39 39 38 39 39 39 39 39 38 37 36 34 33 31 28 26 23 20 19 18 17 17 18 18 17 18 18 18 18 18 19 19 19 18 18
41 40 40 40 39 38 38 38 39 38 38 37 38 38 38 38 37 36 35 34 33 31 29 27 25 22 18 16 15 15 14 14 15 15 14 15 15 16 17 17 18 19 19 19
42 42 41 41 39 39 39 39 38 37 37 37 37 37 37 37 36 35 34 32 31 30 28 26 24 20 17 15 13 12 12 11 11 12 12 12 13 13 14 15 16 17 17 18
43 42 41 40 40 39 39 38 38 37 37 37 37 36 35 35 34 33 32 31 29 28 27 25 23 20 16 13 12 10 9 8 8 8 9 9 10 11 12 12 14 15 15 16
46 44 43 42 41 40 39 39 39 38 38 36 36 35 35 34 32 31 30 30 29 27 26 24 22 19 16 13 11 9 7 6 5 5 5 6 7 8 8 9 11 12 13 14

GEFSNGP_500_meanwind_078.txt.gz
Wind_Speed
7 9 10 12 12 13 14 15 15 18 21 25 26 28 29 31 33 35 37 39 41 42 44 45 46 46 46 46 46 46 46 46 47 47 47 48 48 48 48 48 47 47 47 47
7 9 11 12 14 15 17 18 18 20 22 26 27 29 31 32 33 35 37 40 42 43 45 46 47 47 47 46 47 46 46 46 46 47 47 46 47 46 46 45 45 44 44 44
7 9 12 13 15 19 19 19 21 23 24 26 27 30 31 32 34 36 39 41 43 45 46 47 47 48 48 47 47 46 45 45 46 46 46 46 46 45 44 42 41 41 41 41
8 9 13 15 17 19 20 21 22 24 25 27 29 32 34 34 36 38 41 43 45 47 47 47 48 48 48 47 46 45 45 45 45 46 46 45 44 42 41 39 38 37 37 36
11 9 12 18 20 20 22 23 23 23 25 27 28 31 36 37 39 40 42 44 46 48 48 48 49 48 47 46 45 45 44 45 45 46 44 43 42 40 38 37 35 34 33 32
13 13 14 19 21 21 24 27 25 26 27 29 30 31 34 37 38 40 43 45 47 48 48 48 49 48 47 45 45 44 44 45 45 44 43 42 40 38 36 34 33 31 30 29
15 15 17 23 23 24 25 28 28 29 30 30 31 32 34 37 39 41 43 45 48 49 49 48 48 47 46 45 44 43 44 44 44 43 42 40 38 36 34 32 30 29 27 26
19 18 21 25 27 26 26 27 28 29 30 31 32 33 35 37 40 42 44 46 48 48 48 48 48 47 45 44 43 43 43 43 43 43 42 39 37 34 33 31 29 28 26 24
22 23 25 25 27 28 27 27 28 29 30 31 32 34 36 38 41 42 44 46 47 48 48 48 48 47 45 43 43 42 42 42 42 42 41 38 35 33 32 31 28 26 23 22
22 23 27 27 27 27 27 27 28 29 30 31 32 34 36 39 41 43 45 46 47 47 47 47 47 46 44 42 42 41 41 41 42 42 40 37 35 32 31 30 28 24 21 19
25 24 26 27 28 28 28 28 29 30 30 31 33 35 37 39 42 44 45 46 46 46 47 47 46 45 43 41 41 41 40 40 41 41 39 36 34 32 30 28 27 23 19 17
26 27 27 28 28 28 28 28 29 30 31 32 34 36 38 40 43 44 44 45 45 46 47 47 46 45 43 41 40 40 39 39 40 40 37 35 34 32 30 28 25 22 19 15
26 26 27 28 28 28 29 29 30 30 31 33 35 37 39 41 43 44 44 44 45 46 46 46 45 44 42 40 40 39 39 38 39 38 35 34 33 31 29 26 24 22 19 16
27 26 26 27 28 29 29 30 31 32 33 35 36 38 40 42 43 43 43 44 44 45 46 46 45 43 41 39 38 38 38 37 38 37 34 33 32 29 27 25 23 21 20 17
28 27 28 28 28 29 30 31 32 34 35 36 38 40 41 42 43 43 43 43 44 45 45 45 44 42 40 38 37 37 36 36 36 35 33 32 30 28 26 25 23 22 19 17
29 29 30 30 31 31 32 33 34 35 37 38 39 40 41 42 42 43 43 43 43 44 44 44 43 41 39 37 35 35 35 34 34 33 32 30 29 27 26 25 24 23 20 17
31 31 31 32 33 34 34 35 37 37 39 40 41 41 42 42 42 42 42 42 43 43 43 43 42 40 38 36 34 33 33 33 32 31 30 28 27 26 25 25 24 23 21 18
33 34 34 35 35 36 36 38 39 39 40 41 42 42 42 42 42 42 41 41 41 42 42 42 41 39 37 35 33 31 31 31 30 30 29 27 26 25 25 24 24 23 22 19
36 37 37 37 38 39 39 39 40 41 42 42 42 42 42 41 41 40 40 40 40 41 41 40 39 38 36 34 32 29 29 29 28 28 27 26 25 24 24 24 24 23 22 19
39 39 40 40 40 41 42 41 42 42 43 42 42 42 40 40 40 40 40 40 39 39 39 38 37 36 34 33 30 28 27 27 25 25 25 24 24 23 23 23 23 22 21 19
42 42 43 43 43 43 43 43 43 43 44 42 41 41 40 39 40 40 39 38 38 37 37 36 35 34 33 31 29 27 25 25 23 23 22 22 22 21 21 21 21 20 20 19
45 45 45 46 45 45 45 44 44 44 44 42 41 41 40 40 40 39 38 36 36 36 35 35 34 33 32 30 28 25 24 23 21 20 20 19 20 20 19 19 19 19 18 19
48 48 49 48 47 47 47 47 46 45 45 44 43 42 41 39 39 38 36 35 35 35 34 34 33 32 31 29 26 24 22 21 19 18 17 17 17 17 17 17 17 17 17 17
52 52 52 51 49 48 48 48 48 48 47 45 44 43 41 39 38 38 36 35 34 34 33 32 32 31 29 27 25 22 20 18 17 16 15 14 14 14 15 16 16 16 15 15
55 55 54 53 51 51 50 50 49 48 47 45 44 42 41 39 38 37 35 34 33 33 31 30 30 29 28 26 23 20 18 16 15 14 13 12 11 11 12 13 14 14 14 15
55 54 53 53 52 51 50 50 49 48 46 44 43 42 41 39 37 36 34 33 32 31 30 28 28 27 26 24 22 19 17 15 13 12 11 10 9 9 9 10 11 12 12 13
55 54 53 53 52 50 49 48 47 46 44 43 42 41 40 39 37 35 34 33 32 30 29 27 27 26 25 23 21 18 16 14 12 11 9 8 7 6 6 6 7 8 9 10

GEFSNGP_500_meanwind_084.txt.gz
Wind_Speed
6 6 7 8 9 11 12 15 17 19 21 23 23 24 25 26 29 31 32 34 35 37 38 40 42 42 43 44 44 43 42 42 41 40 40 41 41 40 40 41 41 41 41 40
6 7 8 9 10 11 14 16 19 21 23 24 24 25 26 28 30 32 33 35 36 38 40 41 42 43 43 44 43 43 42 42 41 40 40 41 41 40 40 40 40 39 39 38
7 8 9 10 10 11 14 17 19 22 23 24 25 26 27 28 30 32 34 35 37 39 41 42 43 43 43 43 43 43 43 42 41 40 40 40 40 40 39 39 38 37 37 36
8 9 10 9 10 12 15 17 19 21 23 25 26 26 27 29 31 33 34 36 38 40 41 42 43 43 43 44 44 43 43 42 41 40 40 40 39 39 38 37 36 35 34 34
10 11 11 11 11 14 17 19 20 22 24 25 26 27 28 30 32 33 35 37 39 40 42 42 43 43 43 43 44 43 42 42 41 40 39 39 39 38 37 36 36 35 34 33
11 12 12 12 14 16 19 20 22 23 24 25 27 28 30 31 32 34 35 37 39 41 41 42 42 43 43 43 43 43 42 42 41 39 39 39 38 38 37 35 34 33 32 32
12 14 14 15 17 18 20 23 23 23 24 26 27 28 30 31 32 34 36 38 40 41 41 42 42 43 43 43 43 43 43 41 40 39 39 38 38 37 35 34 33 32 31 29
16 17 18 19 20 20 21 22 23 24 24 26 27 28 30 31 33 35 36 39 40 41 41 41 42 43 43 43 43 43 42 41 40 39 38 38 37 36 35 34 33 31 29 27
20 21 21 21 21 21 21 22 22 23 24 25 27 28 30 31 33 35 37 39 40 41 41 41 42 43 43 43 42 42 42 40 40 39 38 37 36 35 35 35 33 30 27 25
23 23 22 21 21 21 21 21 22 23 24 25 27 29 30 32 34 36 38 39 40 40 41 41 42 43 43 43 42 42 41 40 39 39 38 37 36 35 34 34 32 29 26 24
24 23 23 22 22 22 22 22 23 23 25 27 28 30 31 33 34 36 38 40 40 40 41 41 42 42 43 43 42 42 41 40 39 38 37 36 35 34 34 33 31 29 27 24
25 24 24 24 24 24 25 25 25 26 27 29 30 31 33 34 36 37 39 40 40 40 41 41 41 42 42 43 42 41 40 39 38 37 36 35 34 33 33 32 31 29 27 24
25 25 25 25 26 26 27 27 27 27 28 30 31 33 34 35 37 38 39 40 40 40 40 41 41 41 42 42 42 42 40 38 37 37 35 34 33 32 31 31 30 29 27 23
25 26 26 26 27 28 28 28 29 29 30 31 32 33 35 36 38 39 40 40 40 40 41 41 41 41 42 42 42 41 39 38 36 36 35 34 32 30 30 30 30 28 25 23
25 26 27 27 28 28 29 30 30 31 31 33 34 35 36 38 39 40 40 41 42 42 42 42 41 41 42 42 41 40 38 37 35 34 34 33 31 30 30 30 29 27 25 23
26 26 27 28 28 30 31 32 32 33 33 35 36 37 38 39 40 40 41 42 42 43 42 41 41 41 41 41 40 39 37 36 34 33 32 32 30 29 28 29 28 27 25 23
27 28 29 30 31 32 33 34 34 35 36 37 38 39 41 42 42 41 42 43 43 44 43 42 41 41 41 40 39 38 36 34 33 32 31 30 29 27 27 27 27 25 24 23
30 31 32 33 34 35 36 37 37 37 38 39 40 42 43 44 43 43 44 44 45 44 43 42 41 40 40 39 37 36 35 33 31 30 30 29 28 26 25 25 25 24 23 21
33 35 36 37 38 38 38 39 40 40 41 42 42 43 44 45 45 45 45 45 45 45 43 42 41 40 38 37 36 34 33 32 30 29 28 28 27 25 24 24 23 23 22 20
37 38 39 41 41 41 42 42 43 44 44 45 46 46 46 46 47 46 47 46 46 45 43 43 41 39 37 36 34 33 32 30 28 27 27 26 25 24 23 22 22 21 21 20
40 42 43 44 44 44 45 47 48 48 49 49 49 49 48 48 48 48 48 47 46 44 43 41 39 37 35 34 33 32 31 29 27 25 24 24 23 22 21 21 20 20 19 19
43 44 45 46 48 48 49 51 52 51 51 51 51 51 50 50 49 49 48 47 45 43 42 40 38 36 34 33 32 31 29 27 25 24 22 21 20 19 19 19 19 18 18 17
46 48 49 51 52 52 53 53 53 53 52 52 52 51 50 49 48 47 45 44 43 41 39 38 36 34 33 31 30 28 27 25 24 22 20 19 18 17 17 17 17 16 16 16
49 50 52 53 54 55 55 55 55 55 55 54 53 51 49 48 46 44 43 42 41 38 37 36 34 32 30 29 27 26 25 24 22 20 18 17 16 14 13 14 14 14 14 14
53 54 54 55 56 56 57 56 56 55 54 53 51 49 47 46 44 42 41 40 39 37 35 34 32 30 28 27 26 25 24 22 20 19 17 15 14 12 11 11 11 12 12 12
57 57 57 57 57 57 56 55 54 53 52 50 48 47 45 43 41 40 39 37 36 35 33 32 30 28 27 26 25 24 22 20 19 17 15 14 12 11 9 8 8 8 9 10
59 58 58 57 56 55 54 53 52 50 48 46 45 43 41 40 39 38 36 35 34 33 32 30 29 27 25 24 23 22 21 19 18 16 14 13 11 9 7 6 6 6 6 7